Погода в Ерзовке

Россия / Волгоградская область     48°55′54″N   44°38′06″E
темп.,
°C
ветер,
м/с
пор.,
м/с
влажн.,
%
обл.,
%
осадки,
мм/ч
давл.,
гПа
погр.,
м
12 апреля, пн
пн1200:00+12в476857 0.0 102391
03:00+10всв476480 0.0 102383
06:00+9св5764100 0.0 102488
09:00+13в695753 0.0 1025302
12:00+16вюв8114622 0.0 1025698
15:00+17вюв8123885 0.0 1025902
18:00+15в6124544 0.0 1025204
21:00+12в51052100 0.0 1026123
13 апреля, вт
вт1300:00+11всв4658100 0.0 102764
03:00+9всв4757100 0.0 102793
06:00+8св476189 0.0 1027114
09:00+13в61046100 0.0 1027304
12:00+16вюв8103798 0.0 1027733
15:00+17вюв811340 0.0 1025936
18:00+15в59450 0.0 1024143
21:00+12всв59570 0.0 1025100
14 апреля, ср
ср1400:00+10в475928 0.0 102483
03:00+9всв476396 0.0 102382
06:00+8всв4665100 0.0 102397
09:00+12в6851100 0.0 1022250
12:00+16в6942100 0.0 1021677
15:00+17вюв6838100 0.0 10191038
18:00+16в3446100 0.0 101860
21:00+13всв475991 0.0 101883
15 апреля, чт
чт1500:00+11всв47635 0.0 101784
03:00+9всв33660 0.0 101726
06:00+9св336597 0.0 101727
09:00+12всв455723 0.0 1017171
12:00+17всв454033 0.0 1016509
15:00+19вюв5736100 0.0 10141388
18:00+17вюв354161 0.0 101479
21:00+14вюв344982 0.0 101436
16 апреля, пт
пт1600:00+13юв33540 0.0 101317
03:00+11з11635 0.0 101313
06:00+11зсз3369100 0.0 101333
09:00+15з3458100 0.0 1014270
12:00+17з4548100 0.0 1014938
15:00+18зсз554318 0.0 10141334
18:00+16з5758100 0.0 1014455
21:00+14з5864100 0.0 1015179